Terug naar catalogus

SL-12 DEB

LostHEO
NORAD 48539·DEBRIS·🇷🇺 Russia

Gelanceerd Sep 25, 2008 vanaf Baikonur Cosmodrome

Loading…

Volgende Passages (komende 24 uur)

TLE

VerouderdSource: Space-Track

Epoch: Aug 14, 2021, 14:15 UTC

1 48539U 08046U   21226.59386961 -.00000997  00000-0 -13658-2 0  9999
2 48539  64.9066   5.4028 5920568 347.1580   2.6132  4.02320597 98142

Volg SL-12 DEB in realtime met AllMySat

Download on the App Store